• In Romania
  • List of Countries
  • For 7 days
  • Water Temperature
  • Satellite Maps
  • Weather Map
  • Weather Widgets
  • user-avatar
    Login

    Hourly Weather Brisbane

    Today, 21 July, Saturday

    Time Temperature Precipitation Wind Pressure Humidity
    00:00 +14°C° 0 mm 4 mps 762 mmHg 46%
    01:00 +13°C° 0 mm 4 mps 762 mmHg 45%
    02:00 +12°C° 0 mm 4 mps 763 mmHg 48%
    03:00 +11°C° 0 mm 4 mps 763 mmHg 50%
    04:00 +10°C° 0 mm 5 mps 763 mmHg 50%
    05:00 +10°C° 0 mm 4 mps 763 mmHg 50%
    06:00 +8°C° 0 mm 4 mps 764 mmHg 51%
    07:00 +9°C° 0 mm 3 mps 764 mmHg 51%
    08:00 +11°C° 0 mm 3 mps 764 mmHg 44%
    09:00 +13°C° 0 mm 3 mps 764 mmHg 36%
    10:00 +17°C° 0 mm 3 mps 764 mmHg 29%
    11:00 +18°C° 0 mm 3 mps 764 mmHg 27%
    12:00 +19°C° 0 mm 3 mps 764 mmHg 25%
    13:00 +20°C° 0 mm 2 mps 764 mmHg 23%
    14:00 +20°C° 0 mm 3 mps 763 mmHg 26%
    15:00 +20°C° 0 mm 3 mps 763 mmHg 29%
    16:00 +19°C° 0 mm 3 mps 763 mmHg 32%
    17:00 +17°C° 0 mm 3 mps 764 mmHg 41%
    18:00 +14°C° 0 mm 3 mps 764 mmHg 49%
    19:00 +13°C° 0 mm 3 mps 765 mmHg 58%
    20:00 +12°C° 0 mm 3 mps 765 mmHg 61%
    21:00 +11°C° 0 mm 3 mps 765 mmHg 64%
    22:00 +12°C° 0 mm 2 mps 766 mmHg 67%
    23:00 +10°C° 0 mm 2 mps 766 mmHg 68%

    Tomorrow, 22 July, Sunday

    Time Temperature Precipitation Wind Pressure Humidity
    00:00 +10°C° 0 mm 3 mps 766 mmHg 69%
    01:00 +9°C° 0 mm 3 mps 766 mmHg 70%
    02:00 +9°C° 0 mm 3 mps 766 mmHg 71%
    03:00 +9°C° 0 mm 3 mps 766 mmHg 71%
    04:00 +8°C° 0 mm 3 mps 766 mmHg 72%
    05:00 +8°C° 0 mm 3 mps 766 mmHg 73%
    06:00 +8°C° 0 mm 3 mps 766 mmHg 73%
    07:00 +8°C° 0 mm 3 mps 766 mmHg 73%
    08:00 +11°C° 0 mm 3 mps 766 mmHg 66%
    09:00 +14°C° 0 mm 3 mps 766 mmHg 59%
    10:00 +18°C° 0 mm 3 mps 766 mmHg 52%
    11:00 +18°C° 0 mm 3 mps 766 mmHg 50%
    12:00 +19°C° 0 mm 3 mps 765 mmHg 48%
    13:00 +20°C° 0 mm 3 mps 765 mmHg 46%
    14:00 +20°C° 0 mm 3 mps 764 mmHg 48%
    15:00 +19°C° 0 mm 3 mps 764 mmHg 50%
    16:00 +19°C° 0 mm 3 mps 764 mmHg 53%
    17:00 +17°C° 0 mm 3 mps 764 mmHg 60%
    18:00 +15°C° 0 mm 2 mps 765 mmHg 67%
    19:00 +14°C° 0 mm 2 mps 765 mmHg 74%
    20:00 +13°C° 0 mm 2 mps 765 mmHg 76%
    21:00 +13°C° 0 mm 1 mps 766 mmHg 77%
    22:00 +12°C° 0 mm 1 mps 766 mmHg 79%
    23:00 +12°C° 0 mm 1 mps 766 mmHg 80%

    Day after tomorrow, 23 July, Monday

    Time Temperature Precipitation Wind Pressure Humidity
    00:00 +12°C° 0 mm 1 mps 766 mmHg 82%
    01:00 +11°C° 0 mm 1 mps 765 mmHg 83%
    02:00 +10°C° 0 mm 2 mps 765 mmHg 84%
    03:00 +10°C° 0 mm 2 mps 765 mmHg 85%
    04:00 +9°C° 0 mm 2 mps 764 mmHg 86%
    05:00 +9°C° 0 mm 2 mps 765 mmHg 86%
    06:00 +9°C° 0 mm 2 mps 765 mmHg 86%
    07:00 +9°C° 0 mm 2 mps 765 mmHg 86%
    08:00 +13°C° 0 mm 2 mps 765 mmHg 74%
    09:00 +16°C° 0 mm 2 mps 765 mmHg 62%
    10:00 +20°C° 0 mm 1 mps 765 mmHg 50%
    11:00 +21°C° 0 mm 1 mps 764 mmHg 45%
    12:00 +22°C° 0 mm 1 mps 764 mmHg 41%
    13:00 +23°C° 0 mm 1 mps 763 mmHg 36%
    14:00 +21°C° 0 mm 2 mps 763 mmHg 38%
    15:00 +21°C° 0 mm 2 mps 762 mmHg 40%
    16:00 +20°C° 0 mm 2 mps 762 mmHg 42%
    17:00 +18°C° 0 mm 2 mps 762 mmHg 51%
    18:00 +17°C° 0 mm 2 mps 763 mmHg 61%
    19:00 +15°C° 0 mm 2 mps 763 mmHg 71%
    20:00 +14°C° 0 mm 2 mps 763 mmHg 74%
    21:00 +14°C° 0 mm 2 mps 764 mmHg 78%
    22:00 +13°C° 0 mm 1 mps 764 mmHg 81%
    23:00 +13°C° 0 mm 1 mps 764 mmHg 83%

    24 July, Tuesday

    Time Temperature Precipitation Wind Pressure Humidity
    00:00 +12°C° 0 mm 1 mps 763 mmHg 85%
    01:00 +12°C° 0 mm 1 mps 763 mmHg 86%
    02:00 +12°C° 0 mm 1 mps 763 mmHg 87%
    03:00 +10°C° 0 mm 2 mps 763 mmHg 88%
    04:00 +10°C° 0 mm 2 mps 763 mmHg 88%
    05:00 +10°C° 0 mm 2 mps 763 mmHg 88%
    06:00 +10°C° 0 mm 2 mps 763 mmHg 87%
    07:00 +10°C° 0 mm 2 mps 764 mmHg 87%
    08:00 +14°C° 0 mm 2 mps 764 mmHg 74%
    09:00 +17°C° 0 mm 2 mps 764 mmHg 62%
    10:00 +20°C° 0 mm 2 mps 764 mmHg 49%
    11:00 +21°C° 0 mm 2 mps 763 mmHg 43%
    12:00 +24°C° 0 mm 2 mps 762 mmHg 37%
    13:00 +26°C° 0 mm 2 mps 761 mmHg 30%
    14:00 +25°C° 0 mm 2 mps 761 mmHg 33%
    15:00 +25°C° 0 mm 3 mps 761 mmHg 35%
    16:00 +25°C° 0 mm 3 mps 761 mmHg 37%
    17:00 +21°C° 0 mm 3 mps 761 mmHg 46%
    18:00 +19°C° 0 mm 3 mps 762 mmHg 54%
    19:00 +17°C° 0 mm 3 mps 762 mmHg 62%
    20:00 +16°C° 0 mm 3 mps 762 mmHg 63%
    21:00 +16°C° 0 mm 3 mps 763 mmHg 65%
    22:00 +14°C° 0 mm 3 mps 763 mmHg 66%
    23:00 +15°C° 0 mm 2 mps 763 mmHg 64%

    25 July, Wednesday

    Time Temperature Precipitation Wind Pressure Humidity
    00:00 +14°C° 0 mm 2 mps 763 mmHg 63%
    01:00 +14°C° 0 mm 2 mps 763 mmHg 61%
    02:00 +13°C° 0 mm 2 mps 763 mmHg 59%
    03:00 +13°C° 0 mm 2 mps 763 mmHg 57%
    04:00 +13°C° 0 mm 2 mps 762 mmHg 56%
    05:00 +13°C° 0 mm 2 mps 763 mmHg 54%
    06:00 +13°C° 0 mm 2 mps 763 mmHg 53%
    07:00 +13°C° 0 mm 2 mps 764 mmHg 52%
    08:00 +16°C° 0 mm 1 mps 764 mmHg 45%
    09:00 +20°C° 0 mm 1 mps 764 mmHg 37%
    10:00 +23°C° 0 mm 1 mps 764 mmHg 30%
    11:00 +25°C° 0 mm 1 mps 763 mmHg 28%
    12:00 +26°C° 0 mm 1 mps 763 mmHg 27%
    13:00 +27°C° 0 mm 1 mps 762 mmHg 25%
    14:00 +25°C° 0 mm 1 mps 762 mmHg 30%
    15:00 +24°C° 0 mm 2 mps 762 mmHg 35%
    16:00 +23°C° 0 mm 2 mps 762 mmHg 39%
    17:00 +21°C° 0 mm 2 mps 762 mmHg 45%
    18:00 +19°C° 0 mm 2 mps 762 mmHg 50%
    19:00 +19°C° 0 mm 1 mps 763 mmHg 56%
    20:00 +18°C° 0 mm 1 mps 763 mmHg 59%
    21:00 +18°C° 0 mm 1 mps 763 mmHg 63%
    22:00 +16°C° 0 mm 1 mps 764 mmHg 67%
    23:00 +16°C° 0.1 mm 2 mps 764 mmHg 67%

    26 July, Thursday

    Time Temperature Precipitation Wind Pressure Humidity
    00:00 +15°C° 0.1 mm 2 mps 764 mmHg 67%
    01:00 +15°C° 0.1 mm 2 mps 764 mmHg 67%
    02:00 +15°C° 0 mm 2 mps 764 mmHg 66%
    03:00 +14°C° 0 mm 2 mps 764 mmHg 65%
    04:00 +14°C° 0 mm 1 mps 764 mmHg 64%
    05:00 +14°C° 0 mm 2 mps 764 mmHg 65%
    06:00 +13°C° 0 mm 2 mps 764 mmHg 67%
    07:00 +13°C° 0 mm 2 mps 765 mmHg 68%
    08:00 +15°C° 0 mm 2 mps 765 mmHg 63%
    09:00 +17°C° 0 mm 2 mps 765 mmHg 57%
    10:00 +20°C° 0 mm 2 mps 765 mmHg 51%
    11:00 +21°C° 0.1 mm 2 mps 764 mmHg 48%
    12:00 +24°C° 0.1 mm 2 mps 763 mmHg 44%
    13:00 +25°C° 0.1 mm 2 mps 763 mmHg 40%
    14:00 +24°C° 0 mm 3 mps 763 mmHg 44%
    15:00 +24°C° 0 mm 3 mps 763 mmHg 47%
    16:00 +22°C° 0 mm 3 mps 763 mmHg 51%
    17:00 +20°C° 0 mm 3 mps 763 mmHg 61%
    18:00 +18°C° 0 mm 3 mps 764 mmHg 71%
    19:00 +17°C° 0 mm 3 mps 764 mmHg 81%
    20:00 +16°C° 0 mm 3 mps 765 mmHg 82%
    21:00 +16°C° 0 mm 2 mps 765 mmHg 83%
    22:00 +15°C° 0 mm 2 mps 765 mmHg 84%
    23:00 +15°C° 0 mm 2 mps 765 mmHg 85%
    Show more